RH
85 77 72 72 76 77 77 77 74 77 79 77 75 73 70 66 66 65 64 61 56 56 50 43 41 37 33 31 26 13 16 34 41 45 54 56 56 54 51 51 51 56 57 52 44 39 42 43 43 46 53 59 58 59 62 62 60 60 62 58 56 52
86 77 73 73 75 77 76 76 75 75 75 75 74 70 67 66 66 66 67 64 63 64 60 58 52 45 39 32 27 14 14 33 40 44 52 53 52 50 50 51 53 60 63 59 53 49 50 52 55 54 53 54 48 48 57 60 58 58 60 60 55 47
85 75 75 80 80 75 72 72 69 67 67 67 67 67 66 68 68 68 69 70 75 74 73 75 68 59 50 37 29 17 12 29 42 44 50 52 48 49 52 53 58 67 73 74 72 69 66 60 60 66 66 59 50 50 55 57 58 60 60 57 53 49
84 74 72 76 80 76 75 78 70 64 62 58 60 65 66 68 70 70 71 75 77 77 76 79 82 76 62 46 33 21 15 26 41 46 50 49 45 50 53 58 69 76 79 82 82 83 83 73 65 69 74 69 63 65 63 58 57 58 57 52 51 52
79 75 69 68 75 76 80 86 82 73 64 58 61 66 69 73 77 76 77 78 73 77 78 76 84 80 63 48 34 24 15 19 36 47 50 46 45 50 56 67 77 81 82 82 82 84 89 85 73 67 75 76 70 67 63 63 62 58 59 59 58 52
78 76 73 74 74 74 77 79 84 84 73 69 71 76 79 78 82 83 82 84 77 78 79 76 81 75 63 56 49 40 18 12 27 42 48 44 45 51 62 72 76 82 82 82 84 82 85 82 75 72 77 73 67 70 67 62 60 57 62 60 51 41
77 73 72 79 78 75 77 78 85 89 83 80 80 85 86 79 82 84 82 87 82 77 77 78 78 76 75 71 68 59 31 14 18 34 43 42 49 57 68 72 71 79 79 82 83 77 78 76 72 73 77 72 64 74 72 59 61 61 59 53 47 44
73 72 69 72 69 65 72 81 88 90 88 86 85 87 88 85 83 82 84 89 85 79 81 80 75 79 87 78 73 71 57 39 19 22 43 57 67 66 69 69 67 72 74 78 78 72 73 71 71 71 73 76 67 67 67 61 70 69 60 59 61 57
72 79 75 69 64 58 62 72 77 80 80 80 88 90 88 90 86 82 85 88 86 82 84 86 80 82 87 80 77 77 76 68 41 31 56 80 80 69 70 69 64 68 71 75 76 73 74 68 70 72 69 74 72 71 69 65 70 71 67 66 63 53
75 78 74 69 70 68 66 65 63 66 67 68 82 90 90 92 87 84 84 79 80 81 82 88 88 88 87 84 83 78 75 75 63 54 68 86 81 72 74 70 66 70 71 75 77 74 74 72 68 70 69 67 72 74 70 64 67 73 72 61 52 44
70 66 64 65 66 70 70 62 53 56 65 68 76 83 87 92 89 87 86 77 78 84 83 86 90 88 87 89 83 76 73 69 66 63 69 80 78 75 77 74 73 74 73 76 81 76 74 77 69 68 70 60 64 71 68 69 71 76 74 58 49 44
61 55 54 55 57 66 68 56 49 54 67 74 74 72 72 86 89 84 85 80 80 83 84 86 87 86 86 89 79 69 72 70 66 64 68 76 75 76 78 77 76 76 78 78 81 81 76 77 72 68 67 57 63 72 70 73 75 76 75 66 55 46
57 55 53 52 53 58 57 52 53 58 66 70 74 75 70 75 76 71 75 74 71 76 86 87 82 83 84 86 80 71 74 75 69 62 66 75 74 76 79 78 78 78 80 80 82 82 77 77 72 64 62 61 66 71 71 72 74 75 75 77 71 56
59 63 64 60 56 52 49 48 51 55 59 62 69 78 76 72 70 69 69 62 59 67 79 81 78 84 84 83 83 81 81 75 72 69 68 73 75 78 82 80 81 81 78 78 82 80 76 77 73 64 62 65 67 67 70 70 72 75 74 79 83 74
58 62 65 63 60 56 53 50 49 50 53 59 66 69 65 65 70 70 61 55 59 65 67 70 78 86 85 83 84 87 87 79 78 81 78 78 79 82 85 86 85 85 81 78 81 79 75 77 74 68 64 65 68 69 72 71 70 72 73 77 82 83
50 54 57 57 56 56 56 54 52 50 50 54 58 59 57 59 67 65 58 57 61 62 60 64 78 85 87 88 86 87 89 88 84 83 87 84 81 84 81 83 86 84 83 80 80 78 74 74 74 73 68 67 72 74 76 76 72 71 72 75 78 84
44 50 52 51 51 51 53 53 53 54 54 53 53 54 53 55 61 64 65 66 62 60 57 60 73 80 82 86 87 87 89 93 88 80 82 75 76 88 80 75 81 80 80 81 81 81 77 74 74 73 72 73 76 76 79 81 79 77 73 73 77 82
44 50 53 53 53 51 51 52 53 56 56 54 53 53 52 52 58 61 64 68 66 63 60 62 68 66 66 78 87 90 89 91 89 83 79 70 74 90 85 75 75 73 73 75 78 79 76 74 73 73 73 76 77 79 84 81 80 82 80 77 78 80
48 53 55 55 56 58 60 60 58 58 55 52 52 52 52 51 53 56 61 68 69 65 64 64 67 61 57 68 81 89 87 80 81 82 77 71 72 80 84 79 72 70 70 71 73 71 70 71 71 72 74 77 77 80 82 73 71 79 83 81 80 81
57 58 59 59 58 59 62 63 63 60 56 52 53 54 52 50 50 53 60 72 74 66 62 63 67 65 57 59 74 89 89 78 77 79 74 70 69 70 75 76 73 70 68 68 68 67 70 72 72 71 71 72 72 74 74 66 67 73 78 79 79 80
62 60 60 61 59 57 55 56 58 55 55 57 59 60 55 51 53 54 56 69 74 64 60 61 63 64 61 62 74 89 92 85 79 74 70 70 70 69 72 73 73 72 69 66 64 62 66 71 73 68 65 68 66 66 67 64 66 71 76 80 79 79
57 58 60 62 61 59 55 54 53 52 56 57 56 59 57 50 52 54 54 62 68 65 60 59 61 65 66 66 70 76 77 76 71 63 64 71 73 74 76 73 68 66 68 67 63 60 64 71 72 65 63 69 68 64 63 59 58 62 71 77 76 75
57 60 61 63 65 62 60 60 59 59 61 60 54 53 54 52 51 51 52 56 60 64 62 59 63 69 67 65 65 63 60 63 64 61 64 70 74 75 75 71 63 59 63 66 65 64 68 73 71 67 68 70 71 68 65 63 59 55 59 66 70 73
60 62 62 65 67 65 65 69 69 67 67 66 63 59 58 57 54 50 50 52 53 59 62 61 64 66 61 60 59 55 54 56 58 58 61 63 66 68 68 69 63 56 59 65 67 68 71 72 68 70 73 72 74 73 71 74 70 61 56 58 63 66
60 62 64 65 69 70 71 74 74 71 68 65 64 64 62 60 57 56 56 53 50 53 56 57 64 64 55 54 56 55 56 56 56 56 57 56 56 58 61 65 61 53 53 59 65 70 70 68 63 65 68 71 77 78 75 76 72 63 59 58 60 62
59 62 63 61 67 73 75 77 74 70 65 60 57 56 56 57 59 60 63 62 59 57 54 52 62 69 63 59 60 59 56 56 57 56 55 56 54 55 58 59 57 53 54 56 60 66 68 68 66 64 63 64 70 74 72 71 73 69 61 58 60 60
56 57 57 58 63 69 73 78 76 70 66 62 59 54 52 59 65 67 71 76 77 75 71 61 61 73 76 70 66 62 58 58 58 56 57 57 54 57 60 57 56 57 59 59 56 60 67 70 68 66 64 61 62 67 67 66 71 74 69 64 64 62
52 52 55 57 62 66 69 75 79 75 69 67 67 65 64 68 72 76 79 85 89 90 91 83 73 77 80 74 70 67 63 61 59 58 60 61 60 62 64 64 67 67 67 66 61 62 67 68 67 66 66 65 64 67 67 64 65 71 73 69 66 67
50 51 54 57 62 66 68 74 80 78 73 70 70 71 74 76 75 77 82 87 90 89 91 91 87 88 86 79 75 74 71 66 64 65 66 69 70 71 73 72 73 72 72 72 69 68 67 65 66 67 70 72 71 70 68 68 70 72 76 72 65 65
48 49 54 56 60 66 70 75 79 78 78 76 75 76 78 78 76 78 82 83 82 80 79 81 85 90 91 86 81 80 78 72 72 75 76 77 78 80 82 78 74 72 73 76 74 69 68 69 68 68 71 72 71 72 71 73 73 73 78 79 73 69
48 47 51 53 56 65 71 77 79 78 80 80 79 83 85 87 85 82 82 80 75 73 72 76 81 82 83 87 88 87 85 82 81 82 82 83 83 86 86 81 78 75 74 77 76 71 72 74 73 70 71 70 69 70 73 76 73 71 76 80 79 78
64 57 57 56 55 62 71 77 80 78 81 82 81 84 87 90 89 82 80 80 76 74 74 77 82 76 70 75 82 86 88 89 90 88 83 83 85 87 84 78 77 77 75 75 74 73 74 76 77 75 71 69 68 68 71 71 69 70 75 77 79 79
76 74 75 69 59 62 70 75 79 79 80 81 80 81 82 86 87 82 79 78 77 78 77 76 76 73 67 65 68 72 72 74 82 86 82 82 85 86 83 81 80 78 74 72 72 72 73 74 77 78 76 73 72 73 72 70 70 72 74 75 78 80
72 78 83 79 68 66 70 73 78 80 80 81 80 76 75 79 84 84 81 79 78 76 75 74 70 67 65 62 60 60 59 58 64 74 79 81 83 83 84 85 82 76 70 70 74 76 73 72 72 74 78 79 77 77 77 79 83 82 80 84 84 83
74 79 83 75 65 65 71 75 79 81 80 79 79 74 72 76 81 85 83 78 75 70 68 69 68 65 62 61 59 56 56 59 59 63 71 75 74 73 76 77 72 71 72 73 77 78 75 73 71 71 76 79 79 80 80 84 89 89 90 91 86 84
72 81 82 66 55 61 70 75 77 77 78 78 78 77 75 76 78 81 80 76 73 69 67 68 67 64 58 55 58 57 56 60 60 61 66 69 67 65 66 67 66 68 71 73 75 74 71 70 69 68 69 71 74 77 79 81 84 87 90 88 84 86
75 81 81 62 55 63 66 68 70 71 73 75 75 75 75 75 74 74 74 73 73 72 75 77 75 69 60 53 52 55 58 58 58 61 63 64 65 65 65 66 66 67 65 65 65 65 65 67 67 66 66 67 68 69 72 78 81 83 85 84 84 85
Wind_Speed
13 12 12 12 13 14 15 15 14 14 14 13 12 12 11 10 10 10 9 8 7 6 6 6 6 5 5 5 4 7 14 18 19 19 19 17 16 15 14 13 12 11 11 11 12 13 13 14 15 16 18 18 16 15 13 10 6 1 7 7 4 5
15 13 14 14 14 15 15 14 13 11 11 11 10 10 10 10 9 9 9 8 8 7 6 6 6 5 4 4 5 7 13 18 19 19 18 17 16 15 14 13 12 11 11 11 11 12 12 13 13 13 13 12 10 10 12 11 6 3 7 7 5 7
15 13 13 14 14 14 13 12 11 10 9 9 9 9 9 10 9 9 9 9 8 7 6 6 5 4 4 4 5 7 12 17 18 18 18 17 16 15 14 13 11 10 9 8 8 9 10 10 12 12 9 7 8 12 12 14 9 3 6 8 9 9
15 12 11 13 14 14 13 10 9 9 9 9 10 10 10 10 10 9 9 9 8 7 7 6 6 5 4 3 5 7 12 17 18 17 17 16 16 15 13 12 10 9 8 7 6 6 6 6 9 9 8 6 8 11 8 10 8 4 6 5 7 9
14 13 12 13 13 13 13 13 10 8 9 10 11 11 11 11 10 10 10 9 8 8 7 7 8 8 5 4 4 7 11 15 17 17 16 15 15 14 13 11 8 7 7 6 6 5 2 2 4 5 4 4 6 7 4 4 5 8 8 5 6 10
13 14 14 13 13 12 11 12 12 9 10 10 11 11 11 12 12 12 10 9 9 9 9 9 10 8 6 5 4 5 9 14 16 17 16 15 15 13 11 8 2 2 5 5 5 5 3 3 1 3 3 4 8 8 4 5 6 7 7 6 8 10
13 13 13 14 12 11 9 9 10 10 9 9 10 11 11 12 13 13 11 11 11 11 10 9 10 9 6 5 4 4 8 11 14 16 16 15 13 11 11 7 3 1 3 3 3 5 4 2 2 1 3 4 7 8 8 11 5 5 6 6 7 9
14 12 12 14 11 10 9 8 9 10 10 9 9 9 10 11 13 13 12 13 13 11 10 9 9 9 8 6 4 4 5 6 11 16 14 12 11 8 9 7 8 4 3 4 4 5 4 6 7 4 5 3 3 6 10 12 5 2 5 5 7 9
13 11 12 12 10 10 8 8 9 9 10 11 11 11 13 13 13 13 13 15 14 11 10 9 9 9 9 8 6 5 5 5 6 12 11 10 11 8 8 9 9 7 8 7 7 8 5 6 10 7 7 4 2 4 5 9 8 1 6 5 5 6
12 11 12 10 10 10 7 8 7 8 10 11 12 13 13 14 14 14 14 14 13 13 12 10 10 10 9 9 10 11 11 8 5 7 9 12 12 9 10 11 8 7 6 4 5 8 7 5 7 7 6 4 3 4 2 6 10 4 6 4 1 3
13 11 10 9 9 8 5 6 8 8 9 11 12 11 9 10 13 12 11 11 12 13 13 11 11 10 10 11 13 15 13 10 10 10 9 10 11 9 10 9 6 6 5 5 5 4 5 5 5 7 7 5 5 5 3 5 7 5 6 3 2 2
12 10 9 9 9 7 2 4 8 7 7 8 9 10 9 7 10 10 8 10 11 12 12 11 11 10 10 11 12 15 13 11 13 15 13 11 11 10 9 8 6 7 7 7 6 3 2 3 4 6 4 5 6 5 5 5 6 6 5 5 2 4
10 9 8 8 8 7 2 2 7 7 6 7 7 9 9 7 8 8 7 8 9 10 10 10 11 10 10 11 11 13 14 12 12 12 13 12 12 12 10 9 8 8 8 6 4 4 4 3 4 7 5 4 5 5 4 3 4 7 6 7 4 3
10 9 9 7 6 5 3 2 5 5 5 6 5 7 7 7 7 6 5 7 9 9 8 7 10 10 9 10 11 12 13 14 13 11 12 11 11 11 9 9 8 7 6 5 3 3 4 3 4 8 8 5 3 5 5 4 3 4 6 6 5 3
8 7 7 6 5 4 3 3 4 3 4 6 6 6 8 7 7 7 5 6 9 10 8 7 9 11 10 10 11 12 12 15 16 15 16 14 12 11 9 8 8 6 4 4 2 3 5 4 4 6 7 5 4 5 7 6 5 5 4 5 7 6
6 4 5 5 5 5 4 4 4 3 4 6 7 7 9 8 7 8 7 6 8 10 10 10 10 12 12 12 12 12 12 14 14 12 12 13 11 10 9 8 7 6 5 5 4 6 7 6 6 7 6 6 6 7 7 6 7 6 5 5 6 6
8 6 7 7 7 7 5 5 5 6 5 5 6 8 9 9 7 9 9 7 8 10 12 12 11 11 10 11 11 11 13 13 11 8 7 9 9 7 6 6 6 6 6 7 6 7 8 7 7 7 6 6 6 6 6 5 6 7 7 6 6 7
10 10 10 9 8 8 8 8 8 8 8 6 6 7 7 8 8 9 11 9 9 11 13 12 11 12 10 10 10 10 12 12 9 8 7 8 9 6 4 5 6 7 7 7 6 7 9 9 8 7 6 6 7 7 6 6 6 6 7 7 7 8
12 12 10 10 9 10 11 11 11 12 11 8 7 7 7 8 8 9 10 11 11 11 12 12 11 12 12 12 11 9 9 10 7 7 6 7 9 7 5 6 6 7 8 8 6 5 8 9 8 7 6 6 7 7 8 8 7 7 7 8 8 9
13 12 10 11 10 11 12 11 12 14 12 10 8 8 8 8 8 9 9 11 11 11 12 12 12 13 14 14 14 10 8 9 8 7 6 6 8 7 6 6 6 6 7 7 7 5 5 7 7 7 6 6 7 8 8 8 7 8 8 9 9 9
13 12 12 12 12 11 12 12 13 13 12 10 9 10 9 8 8 8 9 10 11 11 11 12 13 14 15 16 15 11 8 8 9 8 7 6 7 7 6 6 6 7 7 7 8 6 6 7 8 9 8 8 9 9 8 8 8 9 9 10 10 9
14 13 13 13 13 13 13 12 13 12 10 9 10 10 9 9 9 8 9 10 11 12 11 12 13 14 16 16 15 14 12 11 11 10 8 7 7 7 7 7 7 8 8 7 7 8 8 8 9 10 9 9 8 7 8 8 8 9 10 12 12 11
15 15 15 15 15 14 13 13 13 12 10 10 10 10 10 10 10 10 10 11 12 12 11 11 13 14 15 15 14 15 13 13 13 12 10 9 8 8 7 7 8 8 8 8 7 8 9 9 8 9 9 9 8 7 7 7 8 8 9 10 12 12
16 16 16 16 16 15 14 13 13 12 12 13 12 11 12 12 11 11 11 12 12 11 11 12 12 13 14 15 15 15 14 13 13 13 12 11 9 8 8 8 8 9 9 8 8 9 10 10 9 8 7 8 7 6 6 5 6 8 9 9 11 12
15 15 16 16 16 16 15 14 13 12 14 14 13 13 13 13 13 12 12 13 12 10 11 12 13 14 14 15 15 15 14 13 13 13 13 12 11 10 10 10 11 10 9 8 8 9 10 11 10 9 10 9 7 6 6 7 6 5 6 7 9 10
15 15 16 16 15 16 16 16 14 13 14 14 13 12 12 12 12 11 11 13 13 12 13 13 14 17 16 16 16 16 15 13 13 13 12 12 12 12 12 12 12 12 10 10 11 11 11 11 10 10 12 12 10 9 9 8 6 5 5 6 7 8
16 16 16 15 16 16 16 16 15 13 13 14 13 12 12 12 12 11 10 12 13 15 20 19 16 17 17 15 15 14 14 14 14 13 12 12 13 12 12 12 12 13 12 12 13 13 13 14 12 12 13 13 12 13 11 9 8 7 7 6 5 6
17 17 17 16 16 16 16 17 16 14 13 13 14 13 13 14 13 12 11 13 13 14 19 21 18 18 16 14 12 11 12 14 14 13 12 13 14 13 13 13 13 13 13 13 13 14 15 16 16 15 14 13 13 14 13 12 11 10 10 10 8 7
19 19 19 18 17 16 17 17 16 15 14 13 13 12 13 13 12 12 13 15 15 13 15 16 15 15 14 13 11 10 11 12 12 11 11 13 13 12 12 13 13 13 13 13 14 14 15 16 17 16 16 14 13 14 14 12 12 11 12 13 12 10
22 21 21 20 19 18 18 17 17 16 15 14 13 13 13 13 12 13 14 15 15 14 14 13 13 13 14 13 11 11 11 11 12 12 11 10 10 10 11 11 11 11 12 13 14 14 14 14 14 15 17 17 15 15 15 13 13 13 12 13 14 11
23 23 23 22 20 19 19 18 18 17 16 15 15 15 16 16 14 15 16 15 15 15 14 12 12 12 13 13 13 12 10 10 11 12 11 10 10 10 11 11 10 10 11 12 13 12 12 13 13 14 15 17 16 15 15 14 14 14 13 13 13 13
23 23 23 23 21 20 19 19 19 18 17 16 16 17 16 17 17 17 16 15 14 14 13 13 12 12 13 14 14 14 13 12 12 12 11 11 12 12 12 11 11 11 11 11 11 11 11 12 12 13 14 15 15 15 16 16 15 15 14 13 13 14
25 23 22 23 22 21 20 19 19 19 18 17 18 18 17 16 17 17 16 15 14 14 14 13 13 12 12 13 14 15 14 14 14 13 12 11 13 13 13 12 11 11 11 10 11 11 11 11 11 11 12 13 13 14 14 14 14 15 15 14 14 15
26 24 23 22 20 20 20 19 19 19 18 18 18 19 19 18 16 16 16 16 15 15 14 14 13 13 12 12 13 14 13 12 13 13 12 12 12 12 12 12 11 11 10 9 10 11 11 11 11 12 12 12 13 13 12 11 12 13 14 14 14 15
25 24 23 22 20 20 20 19 19 19 19 19 18 19 20 19 17 17 17 17 16 16 15 14 14 13 13 13 13 13 13 13 13 13 12 12 12 12 12 12 11 10 10 9 10 10 10 10 11 11 12 13 13 14 13 12 13 14 14 14 15 15
24 22 22 22 22 20 20 19 20 20 20 20 19 19 19 19 19 18 18 18 17 16 16 15 15 15 15 15 15 14 14 14 13 13 13 13 12 12 12 12 12 11 10 10 10 10 10 10 10 11 12 13 13 14 15 15 15 16 17 17 16 16
23 22 21 21 22 22 21 21 22 21 21 21 21 20 20 20 20 19 19 19 18 17 16 16 15 16 17 17 16 16 15 15 15 15 14 14 13 13 13 13 12 12 12 12 11 11 11 11 11 11 12 12 13 13 14 15 16 17 18 18 18 17
Wind_Direction
151 159 162 162 160 157 156 156 160 157 156 159 160 160 161 164 163 166 170 165 157 148 146 147 149 152 151 152 149 148 155 159 161 159 154 152 152 146 140 135 131 126 119 112 106 103 101 103 110 124 131 130 128 118 104 109 124 201 264 276 286 286
159 165 161 161 161 155 154 156 158 162 164 166 168 167 167 167 169 174 177 174 166 162 161 158 158 156 153 150 140 145 158 162 163 160 155 153 152 145 139 137 132 127 120 112 107 101 99 100 101 112 124 136 144 121 114 133 140 209 248 287 313 309
167 168 158 156 156 153 154 157 160 168 174 179 178 177 174 169 176 183 184 180 175 177 177 171 172 170 159 149 137 139 157 165 165 161 157 155 152 145 140 139 135 132 129 125 120 110 107 102 101 103 99 114 114 87 104 133 136 202 247 290 305 314
172 171 161 155 156 155 155 157 164 174 175 178 179 179 179 177 183 191 192 184 186 192 185 180 182 189 184 163 148 143 158 165 164 162 159 157 153 146 142 139 134 127 122 125 124 116 119 110 113 111 90 92 85 78 94 113 119 245 273 295 304 318
174 173 171 163 166 167 161 159 164 180 182 179 181 185 184 184 188 195 199 193 195 197 188 191 191 199 200 178 161 152 163 166 166 164 161 160 154 147 139 131 123 120 116 109 100 107 155 205 134 123 101 105 96 96 104 110 156 248 279 313 323 320
174 174 174 167 170 172 167 165 165 182 191 189 191 194 193 189 192 197 203 206 208 202 197 199 197 204 202 173 160 162 167 167 168 165 165 164 154 148 135 117 85 94 110 104 100 123 194 256 89 112 147 166 148 130 135 168 196 254 275 300 324 329
165 170 173 167 165 167 172 174 176 185 190 207 211 207 203 194 200 201 198 207 216 213 203 201 198 200 202 178 156 161 160 166 171 168 170 163 154 150 127 133 218 280 93 114 128 145 185 208 104 145 189 180 167 157 161 165 187 276 263 293 314 327
156 158 167 165 166 170 175 184 196 197 187 205 225 228 219 206 212 203 191 202 213 219 208 202 204 198 199 188 152 139 152 176 176 171 172 162 166 155 119 159 207 203 168 163 155 153 192 189 158 194 208 181 173 159 162 164 151 281 259 294 301 314
160 160 163 165 171 172 182 200 214 219 202 206 215 221 222 216 216 200 198 207 200 213 219 210 211 203 201 187 153 151 188 222 189 172 168 167 188 172 151 195 199 194 194 179 175 167 185 191 163 183 202 171 157 148 162 170 146 142 273 283 285 307
171 174 166 167 170 168 191 209 230 243 223 232 232 221 219 217 217 200 203 211 192 200 216 218 216 205 199 186 172 171 189 212 206 194 176 175 197 185 180 199 184 190 200 183 195 175 167 187 170 166 176 164 169 184 189 166 145 155 260 262 277 323
177 183 175 178 175 170 200 222 255 260 225 242 250 240 236 230 228 210 194 194 196 204 206 214 217 203 199 196 190 179 177 192 194 203 195 183 200 194 186 194 189 192 194 204 216 200 173 178 160 140 159 188 182 206 208 151 146 171 234 240 153 91
173 179 177 182 184 182 202 227 237 235 218 240 255 249 248 254 247 235 210 186 191 202 197 215 216 197 204 209 201 179 166 186 197 199 194 188 197 196 193 192 203 206 202 207 190 194 208 168 166 155 189 209 167 200 212 167 166 173 222 261 186 126
162 164 162 169 185 192 194 184 200 212 237 246 258 256 252 277 263 245 245 215 202 202 198 217 211 196 212 217 207 181 169 188 202 201 191 190 195 191 193 194 200 213 212 207 168 182 203 181 188 181 211 236 165 185 214 209 187 166 194 252 250 149
154 157 153 158 178 198 221 203 198 224 270 255 257 259 253 287 269 228 241 233 225 229 225 217 202 201 216 219 209 189 183 189 189 190 185 188 199 189 191 199 198 208 209 198 174 189 198 195 194 178 183 206 192 186 199 229 241 194 197 226 252 247
154 155 155 162 171 184 215 214 197 215 270 260 254 249 249 278 268 236 258 242 217 224 234 226 211 209 207 212 214 198 196 197 189 186 181 179 192 190 190 193 190 204 196 178 198 202 195 194 190 186 184 190 202 207 206 200 208 244 243 218 229 244
175 164 172 185 186 179 190 203 201 220 253 263 260 250 249 263 257 239 251 246 217 214 222 226 224 217 210 210 209 201 204 207 197 190 177 173 183 192 196 191 185 201 186 171 215 220 209 205 191 190 200 212 211 212 219 197 186 218 243 243 237 232
198 193 201 201 195 186 187 203 211 225 235 249 253 248 251 256 251 241 243 240 227 220 219 224 229 229 230 222 207 200 208 212 205 196 187 180 186 194 202 200 192 204 199 188 217 235 225 218 209 198 197 224 228 218 231 217 191 200 214 232 241 238
203 202 208 207 205 200 197 204 211 219 223 228 237 241 248 249 244 243 246 242 227 223 221 223 229 233 242 235 222 212 211 217 207 196 204 197 195 201 207 220 215 217 223 218 229 241 225 215 220 220 203 216 227 219 230 234 216 210 217 225 225 236
210 214 219 219 222 222 217 214 215 219 220 220 229 239 244 247 244 239 243 241 229 223 221 223 225 231 240 236 230 228 217 222 220 209 218 203 199 208 217 232 234 228 231 234 237 231 221 220 224 223 214 222 234 233 234 236 229 216 222 233 226 228
219 226 231 234 234 233 235 233 228 228 226 224 227 235 244 248 242 234 236 238 233 226 223 225 225 228 238 234 230 232 216 213 224 234 236 214 205 204 205 223 232 231 227 230 232 225 221 221 217 221 231 242 253 260 255 254 253 235 229 236 232 230
225 230 231 235 235 231 236 237 233 234 233 236 234 230 239 246 239 232 232 231 233 234 227 224 224 227 233 230 228 233 227 216 222 235 238 226 218 206 202 215 221 222 225 226 227 228 230 226 227 239 249 252 257 264 266 271 267 252 250 249 241 236
226 233 234 235 236 233 233 233 233 235 233 238 240 233 234 238 237 232 224 222 231 234 226 221 222 226 228 225 225 229 234 232 226 232 237 231 227 218 208 212 214 217 227 231 227 228 233 233 240 250 257 258 258 263 269 270 262 257 258 255 250 247
228 236 237 232 233 234 236 236 237 236 231 231 237 234 225 224 230 229 217 213 222 226 221 222 221 222 225 225 223 224 229 233 230 230 231 230 228 220 209 211 220 224 229 231 229 230 230 231 240 251 263 267 267 277 288 279 260 259 262 257 253 253
231 234 234 230 230 232 234 237 239 235 230 231 235 228 218 218 222 225 220 211 213 217 215 221 220 216 220 222 222 223 225 229 231 227 222 223 223 217 210 214 227 231 228 224 223 229 229 233 240 243 256 267 271 280 292 285 267 264 263 258 255 257
231 230 229 228 226 226 226 230 233 231 229 229 230 225 221 225 225 222 224 218 213 212 210 213 207 200 207 216 219 221 221 222 226 225 221 219 219 219 214 215 228 233 227 215 214 225 231 234 239 238 245 255 260 261 258 264 275 275 264 260 259 260
228 227 225 223 222 223 224 227 229 230 232 230 228 230 231 236 237 232 230 222 213 201 195 197 196 195 201 208 212 215 215 215 218 221 221 217 215 219 217 216 225 228 223 215 213 221 228 232 234 233 238 243 242 247 254 257 264 266 264 265 265 259
222 224 222 219 220 222 224 225 228 233 238 235 232 238 241 241 240 238 232 220 211 193 183 185 194 200 202 202 206 210 210 210 210 213 218 215 212 217 216 215 223 224 221 220 219 222 226 230 232 230 234 240 239 242 251 254 252 262 271 273 271 264
218 218 218 219 218 220 222 221 225 232 237 235 233 233 234 234 229 225 226 222 218 201 188 189 194 196 199 204 206 206 210 211 208 207 208 208 209 211 209 205 209 215 217 218 220 224 226 229 231 233 237 238 235 235 242 250 254 260 267 271 272 267
220 216 214 217 216 216 219 219 222 229 232 231 230 228 225 228 226 218 221 221 218 214 208 207 204 198 200 208 208 203 208 211 208 210 209 206 206 205 206 207 208 216 224 223 220 222 228 231 230 233 235 234 231 230 235 246 254 257 260 267 273 272
221 218 215 214 215 215 216 218 222 224 227 227 225 225 223 226 229 221 220 222 222 222 224 221 216 209 207 211 215 210 206 204 202 209 214 211 207 204 212 219 222 232 236 231 226 226 232 237 235 233 233 233 236 236 237 243 248 251 253 258 266 271
221 219 217 215 216 217 216 217 220 221 223 226 223 221 221 220 223 221 220 225 229 228 229 225 217 213 208 209 215 216 214 209 204 207 211 210 209 211 219 225 230 239 239 234 236 238 240 242 244 243 237 237 242 243 241 242 243 245 247 251 260 270
220 218 217 218 217 217 219 218 218 220 222 226 224 220 218 218 220 222 221 225 229 225 222 220 217 216 211 207 208 210 212 211 209 212 212 208 207 211 219 223 227 234 235 236 242 248 248 244 244 246 244 243 246 247 245 244 244 245 245 246 253 262
216 215 215 218 217 215 220 221 219 221 222 227 227 221 220 218 220 224 222 222 223 219 216 215 216 217 214 211 210 209 207 205 207 212 215 212 209 213 219 219 220 226 231 235 237 241 245 242 243 246 245 244 243 245 248 246 244 245 247 247 251 257
217 216 215 219 220 216 219 222 222 222 222 227 229 225 224 222 220 224 224 221 219 216 214 213 215 216 212 211 210 209 207 204 204 208 212 214 212 214 217 218 221 226 230 232 230 232 237 242 248 250 248 246 244 245 247 244 242 243 246 248 251 256
218 217 218 223 223 218 219 221 222 224 223 227 230 227 226 224 221 223 225 224 221 218 216 214 214 213 211 209 207 207 205 203 204 206 209 211 212 214 216 219 225 230 231 231 230 234 240 245 249 252 253 252 250 250 248 244 242 242 247 251 252 255
218 217 222 227 224 219 220 221 222 225 224 225 226 226 226 225 223 224 225 226 225 222 221 220 217 214 213 210 207 207 205 205 206 207 210 212 213 215 219 222 225 227 230 232 234 239 244 248 251 254 256 255 254 255 254 251 249 247 248 252 253 252
215 214 221 224 219 217 219 220 222 225 225 225 225 225 226 225 224 225 226 225 225 225 223 221 220 220 220 215 212 211 210 211 211 212 214 216 216 219 222 224 224 226 233 237 241 246 250 252 254 256 255 255 256 257 257 256 256 255 253 253 253 255